Regional Weather Roundup
Issued by NWS

Home | Current Version | Previous Version | Text Only | Print | Product List | Glossary On
Versions: 1 2 3 4 5 6 7 8 9 10 11 12 13 14 15 16 17 18 19 20 21 22 23 24 25 26 27 28 29 30 31 32 33 34 35 36 37 38 39 40 41 42 43 44 45 46 47 48 49 50
000
ASUS44 KOUN 200210
RWROK

WEATHER ROUNDUP FOR OKLAHOMA
NATIONAL WEATHER SERVICE NORMAN OK
900 PM CDT FRI SEP 19 2014

NOTE: "FAIR" INDICATES FEW OR NO CLOUDS BELOW 12,000 FEET WITH NO
      SIGNIFICANT WEATHER AND/OR OBSTRUCTIONS TO VISIBILITY.

OKZ001>007-009>012-014-015-017-200300-
NORTHWEST OKLAHOMA AND THE PANHANDLE

CITY           SKY/WX    TMP DP  RH WIND       PRES   REMARKS
GAGE           CLEAR     76  61  59 S10       29.95R
ENID/WOODRING  CLEAR     75  64  69 SE14      29.93R
$$

OKZ016-021>023-033>039-044-045-200300-
SOUTHWEST OKLAHOMA

CITY           SKY/WX    TMP DP  RH WIND       PRES   REMARKS
LAWTON/REGL    CLEAR     78  64  61 CALM      29.94R
LAWTON/FT SILL CLEAR     76  65  68 SE5       29.94R
FREDERICK      CLEAR     77  64  64 SE7       29.91R
CLINTON        CLEAR     78  62  57 SE12      29.97R
HOBART         CLEAR     77  64  64 S7        29.95R
ALTUS AFB      CLEAR     76  65  69 SE10      29.94R
$$

OKZ018>020-024>031-200300-
CENTRAL OKLAHOMA

CITY           SKY/WX    TMP DP  RH WIND       PRES   REMARKS
OKLAHOMA CITY  PTCLDY    77  66  68 SE8       29.96R
OKC/WILEY POST CLEAR     80  66  62 SE9       29.96R
OKC/TINKER AFB CLEAR     74  67  80 SE5       29.96R
STILLWATER     CLEAR     77  66  68 SE10      29.95R
GUTHRIE        CLEAR     76  67  73 SE6       29.95R
$$

OKZ008-013-054>072-200300-
NORTHEAST OKLAHOMA

CITY           SKY/WX    TMP DP  RH WIND       PRES   REMARKS
TULSA          CLEAR     73  69  87 SE6       29.95R
TULSA/JONES    CLEAR     75  70  84 SE3       29.97R
PONCA CITY     CLEAR     76  69  79 SE13      29.95R
BARTLESVILLE   CLEAR     67  67 100 CALM      29.98R FOG
MUSKOGEE       CLEAR     73  69  87 CALM      29.98R
$$

OKZ032-040>043-046>053-073>077-200300-
SOUTH CENTRAL/SOUTHEAST OKLAHOMA

CITY           SKY/WX    TMP DP  RH WIND       PRES   REMARKS
ARDMORE/DWNTWN CLEAR     75  68  78 CALM      29.96R
MCALESTER      CLEAR     74  71  91 SE3       29.98R
$$




USA.gov is the U.S. government's official web portal to all federal, state and local government web resources and services.